STARLINK-1336, 45557

Orbit data source: Space-Track

STARLINK-1336, 45557 is a payload satellite owned by SpaceX/Seattle (US) in LEO that was launched on Wed, 22 Apr 2020 UTC via an FALCON 9 launch vehicle from the Air Force Eastern Test Range (AFETR). Payloads include a variety of satellites, spacecraft, and rockets equipped with specific instruments for various scientific and technological missions. These include communications satellites like Starlink; space stations such as the ISS; scientific satellites like the Hubble; Earth observation satellites from companies like Planet Labs, Umbra, and HawkEye 360; GPS; miniature CubeSats for education and research; and military/defense satellites.

Loading next visibility...
STARLINK-1336 details
Identifier
45557, 2020-025AC
Orbit
LEO
Last TLE update9 hours ago
Origin
Flag of USSpaceX/Seattle (US)
ManufacturerSpaceX/Seattle
MissionOperational Commercial Communications
Bus & MotorSTARLINK, Unknown motor
Mass260 kg wet, ~248 kg dry
Launch date (UTC)
2020-04-22 (5 years ago)
Launch vehicle
FALCON 9
Launch site
Air Force Eastern Test Range (AFETR)
Object type
Payload
Rocket body
Debris
Shape & HBRBox + 1 Pan, 8.86 m
Radar Cross Section13.562 m², Large (>1 m²)

Expand to show TLE details & history

TLE from 9 hours ago
0 STARLINK-1336
1 45557U 20025AC  24361.09844429  .00021152  00000-0  14337-2 0  9992
2 45557  53.0533 255.5295 0001405  98.6913 261.4235 15.06424973258667
Epoch: 2024-12-26T02:21Z
Definitive object data (Epoch: 2024-12-26T02:21:45.586Z)
Latitude-0.00004°
Longitude125.00681°
Altitude548.159 km
Speed7.589 km/s
True Right ascension17h 02m 07s
True Declination0° 00' 00"
Sunlit
Object was in daylight at TLE epoch
Visualization TLE readout
Latitude4.86214°
Longitude-60.27461°
Altitude547.199 km
Speed7.59 km/s
Apparent Right ascension02h 14m 50s
Apparent Declination-23° 00' 33"
Sunlit
Object is in full shadow
Visualization observer readout
Local Sidereal Time10:26:50
Azimuth271.624° WNW
Elevation-39.443°
Doppler factor1
Orbital elements
Apogee altitude548.379 km
Perigee altitude546.433 km
Semi-major axis6,925.543 km
Eccentricity0.0001405
Inclination53.0533°
RAAN255.5295°
Arg. of periapsis98.6913°
True anomaly261.40758°
Mean anomaly261.4235°
Eccentric anomaly261.41554°
Mean motion3.76584 °/min
BSTAR0.0014337
Orbital period95.6 mins
Loading maneuver chart data...
Loading historical data...
Loading historical data...
Loading historical data...
Loading historical data...
Loading historical data...
Loading historical data...
Loading historical data...

STARLINK-1336 Visibility forecast

Observer location: undefined°, undefined

Span
Click to sort rows by Start time (UTC) header in descending order
Start Az.
Max El. time (UTC)
Max El. Az.
Max El.
End time (UTC)
End Az.
6 mins2024-12-26 20:04:32.846Z234.237° WSW2024-12-26 20:06:32.846Z251.73° W42.936°2024-12-26 20:10:32.846Z48.336° ENE
4 mins2024-12-26 21:45:32.846Z310.898° NW2024-12-26 21:46:32.846Z329.408° NNW18.649°2024-12-26 21:49:32.846Z22.328° NNE
5 mins2024-12-27 01:06:32.846Z343.489° N2024-12-27 01:08:32.846Z21.121° NNE20.489°2024-12-27 01:11:32.846Z71.966° E
7 mins2024-12-27 02:45:32.846Z307.969° NW2024-12-27 02:48:32.846Z218.988° SW44.828°2024-12-27 02:52:32.846Z133.582° SE
|